DELTA 1 DEB, 12537

Orbit data source: Space-Track

DELTA 1 DEB, 12537 is space debris in SSO originally from a launch on Thu, 29 Jul 1976 UTC launched from the Air Force Western Test Range (AFWTR). Debris objects in space refer to the collection of defunct objects orbiting the Earth. Examples of debris include non-operational satellites, rocket bodies, and fragments generated from explosions, collisions, or faulty payload assembly.

Loading next visibility...
Identifier
12537, 1976-077DS
Orbit
SSO
Country
Flag of USUS
Related business
Manufacturer
Unknown
Mission
Spacecraft
Bus & Motor
Unknown
Mass
Unknown
Launch date (UTC)
1976-07-29 (49 years ago)
Launch vehicle
Unknown
Launch site
Air Force Western Test Range (AFWTR)
Object type
Payload
Rocket body
Debris
Shape & HBR
Unknown shape, 0.1 m
Radar Cross Section
Small (<0.1 m²)

Expand to show TLE details & history
Last TLE update: 1 day ago

TLE from 1 day ago
0 DELTA 1 DEB
1 12537U 76077DS  25288.50196005  .00000058  00000-0  10445-2 0  9995
2 12537 102.2761 256.8340 0162663 340.8719  93.3670 12.11588888  7198
Epoch: 2025-10-15T12:02Z
TLE epoch observation values (Epoch: 2025-10-15T12:02:49.348Z)
Latitude
71.60397°
Longitude
11.2264°
Altitude
1,651.324 km
Speed
7.049 km/s
True Right ascension
14h 24m 49s
True Declination
71° 30' 44"
Sunlit
Object was in daylight at epoch
Visualization orbit readout
Latitude
Unknown
Longitude
Unknown
Altitude
Unknown
Speed
Unknown
Apparent Right ascension
Unknown
Apparent Declination
Unknown
Sunlit
N/A
Visualization observer readout
Local Sidereal Time
09:11:00
Azimuth
Unknown
Elevation
Unknown
Doppler factor
Unknown
Orbital elements
Apogee altitude
1,757.23 km
Perigee altitude
1,496.802 km
Semi-major axis
8,005.153 km
Eccentricity
0.01627
Inclination
102.2761°
RAAN
256.834°
Arg. of periapsis
340.8719°
True anomaly
95.22522°
Mean anomaly
93.367°
Eccentric anomaly
94.29637°
Mean motion
3.03032 °/min
Orbital period
118.8 mins
BSTAR
0.0010445
Loading maneuver chart data...
Computing Atmospheric mass density...
Loading historical data...
Loading historical data...
Loading historical data...
Loading historical data...
Loading historical data...
Loading historical data...
Loading historical data...

Documentation

Showing up to 5 results
|